Flag for U.S.A. Weather past 2 weeks in Roanoke, Virginia, U.S.A.

Now
68 °F

Clear.


Feels Like: 68 °F
Forecast: 67 / 86 °F
Wind: 6 mph from Northwest

Location: Roanoke Regional Airport

Current Time: Jul 31, 2015 at 3:37:26 AM

Latest Report: Jul 31, 2015 at 2:54 AM


Visibility: 10 mi

Pressure: 29.98 "Hg

Humidity: 73%

Dew point: 59 °F

Location of RoanokeLocation

Historic Weather in Roanoke — Graph

°F

Roanoke temperature yesterday

Maximum temperature yesterday: 93 °F (at 3:54 PM)
Minimum temperature yesterday: 72 °F (at 3:54 AM)
Average temperature yesterday: 80 °F

Past Weeks' High & Low Weather Summary

 TemperatureHumidityPressure
High93 °F (Jul 30, 3:54 PM)97% (Jul 18, 4:54 AM)30.11 "Hg (Jul 18, 4:54 AM)
Low64 °F (Jul 24, 6:54 AM)36% (Jul 22, 3:54 PM)29.72 "Hg (Jul 21, 3:54 PM)
Average78 °F72%29.96 "Hg
* Reported Jul 16 1:54 AM — Jul 31 1:54 AM, Roanoke, Weather by CustomWeather, © 2015

Note: Actual official high and low records may vary slightly from our data, if they occured in-between our weather recording intervals... More about our weather records

Advertising

Roanoke weather history for previous 24 hours

 ConditionsComfort  
Time TempWeatherWind HumidityBarometerVisibility
1:54 AM
Fri, Jul 31
68 °FClear.3 mph73%29.99 "Hg10 mi
12:54 AM71 °FClear.7 mph66%29.99 "Hg10 mi
11:54 PM
Thu, Jul 30
72 °FPassing clouds.7 mph64%29.99 "Hg10 mi
10:54 PM77 °FPassing clouds.8 mph54%30.00 "Hg10 mi
9:54 PM78 °FPassing clouds.8 mph54%29.98 "Hg10 mi
8:54 PM80 °FPassing clouds.13 mph51%29.94 "Hg10 mi
7:54 PM84 °FScattered clouds.10 mph53%29.93 "Hg10 mi
6:54 PM88 °FPartly sunny.14 mph46%29.90 "Hg10 mi
5:54 PM91 °FPartly sunny.15 mph44%29.88 "Hg10 mi
4:54 PM93 °FScattered clouds.14 mph42%29.88 "Hg10 mi
3:54 PM93 °FScattered clouds.8 mph42%29.89 "Hg10 mi
2:54 PM91 °FScattered clouds.9 mph49%29.92 "Hg10 mi
1:54 PM88 °FScattered clouds.No wind59%29.95 "Hg10 mi
12:54 PM84 °FBroken clouds.3 mph70%29.98 "Hg10 mi
11:54 AM81 °FPassing clouds.10 mph77%29.99 "Hg10 mi
10:54 AM79 °FPartly sunny.8 mph77%29.99 "Hg10 mi
9:54 AM78 °FBroken clouds.7 mph79%29.98 "Hg10 mi
8:54 AM76 °FBroken clouds.7 mph85%29.98 "Hg10 mi
7:54 AM75 °FBroken clouds.6 mph88%29.97 "Hg10 mi
6:54 AM72 °FPassing clouds.3 mph93%29.96 "Hg9 mi
5:54 AM73 °FPassing clouds.3 mph94%29.95 "Hg10 mi
4:54 AM73 °FPassing clouds.No wind94%29.95 "Hg10 mi
3:54 AM72 °FClear.3 mph97%29.96 "Hg10 mi
Weather by CustomWeather, © 2015

See weather overviewHow to use our weather pages